Location: Bu�n Treun
(12.1333°N, 108.3167°E)
Time: 13:22:20
(UTC+00:00)

Cosmos 841 Rocket - Pass Details

Date: 13 July 2020
Orbit: 747 x 772 km, 74.0° (Epoch: 07 August)

Event Time Altitude Azimuth Distance (km) Brightness Sun altitude
Rises 22:01:26 0° 326° (NNW) 3,201 6.6 -7.1°
Reaches altitude 10° 22:04:10 10° 313° (NW) 2,281 5.7 -6.5°
Maximum altitude 22:08:19 25° 260° (W) 1,507 4.5 -5.6°
Drops below altitude 10° 22:12:30 10° 206° (SSW) 2,293 5.5 -4.6°
Sets 22:15:16 0° 193° (SSW) 3,223 6.4 -4.0°
